Regional Weather Roundup
Issued by NWS Charleston, WV

Home | Current Version | Previous Version | Graphics & Text | Print | Product List | Glossary On
Versions: 1 2 3 4 5 6 7 8 9 10 11 12 13 14 15 16 17 18 19 20 21 22 23 24 25 26 27 28 29 30 31 32 33 34 35 36 37 38 39 40 41 42 43 44 45 46 47 48 49 50
439
ASUS41 KRLX 210310
RWRRLX
West Virginia Regional Weather Roundup
National Weather Service Charleston WV
1000 PM EST MON NOV 20 2017

Note: "fair" indicates few or no clouds below 12,000 feet with no
significant weather and/or obstructions to visibility.

WVZ003-210400-
Northern Panhandle of West Virginia

CITY           SKY/WX    TMP DP  RH WIND       PRES   REMARKS
WHEELING       CLEAR     38  20  48 S10       30.04F
$$

WVZ009-210400-
Northwest West Virginia

CITY           SKY/WX    TMP DP  RH WIND       PRES   REMARKS
PARKERSBURG    CLOUDY    30  23  75 SE3       30.10F
$$

WVZ006-210400-
Western West Virginia

CITY           SKY/WX    TMP DP  RH WIND       PRES   REMARKS
HUNTINGTON     CLEAR     36  23  59 CALM      30.09R
$$

WVZ015-210400-
West Central West Virginia

CITY           SKY/WX    TMP DP  RH WIND       PRES   REMARKS
CHARLESTON     CLEAR     32  26  78 CALM      30.09F
$$

WVZ022-031-210400-
North Central West Virginia

CITY           SKY/WX    TMP DP  RH WIND       PRES   REMARKS
CLARKSBURG     CLOUDY    32  24  72 CALM      30.10S
MORGANTOWN     CLOUDY    34  21  59 S5        30.09S
$$

WVZ025-035-042-045-210400-
Southern West Virginia

CITY           SKY/WX    TMP DP  RH WIND       PRES   REMARKS
BECKLEY        CLOUDY    40  18  41 SE9       30.10S
LOGAN            N/A     43  19  39 CALM      30.09S
BLUEFIELD      CLOUDY    40  16  37 SE5       30.12R
LEWISBURG      CLOUDY    28  23  81 NE5       30.14F
$$

WVZ047-210400-
Northern Mountains of West Virginia

CITY           SKY/WX    TMP DP  RH WIND       PRES   REMARKS
ELKINS         CLOUDY    27  23  85 CALM      30.11F
$$

WVZ052-210400-
Eastern Panhandle of West Virginia

CITY           SKY/WX    TMP DP  RH WIND       PRES   REMARKS
MARTINSBURG    CLOUDY    37  22  54 S7        30.13S
PETERSBURG     CLOUDY    30  24  80 NW6       30.13F
$$




USA.gov is the U.S. government's official web portal to all federal, state and local government web resources and services.